Temperature
-1 -0 -0 -0 0 0 -0 -0 -0 0 0 1 0 -0 0 0 0 0 0 0 1 1 1 1 1 2 2 2 2 2 2 2 3 3 3 3 3 3 4 4 4 4 4 4
-1 -0 -0 -0 0 0 -0 -0 -0 0 0 0 0 0 -0 -0 -1 -1 -1 -1 -0 -0 0 1 1 1 1 2 2 2 2 2 2 2 2 3 3 3 3 3 3 3 3 4
-2 -2 -1 -1 -1 -1 -1 -1 -1 -1 -0 -1 -1 -1 -1 -1 -1 -1 -1 -1 -1 -1 -1 -0 0 0 1 1 1 1 1 2 2 2 2 2 2 2 2 3 3 3 3 3
-3 -2 -1 0 -1 -1 -1 -1 -2 -1 -1 -1 -1 -1 -0 -1 -1 -1 -1 -1 -1 -1 -1 -1 -0 0 0 0 1 1 1 1 1 1 1 2 2 2 2 2 2 2 2 3
-4 -3 -2 -1 -1 -2 -2 -2 -2 -2 -2 -1 -1 -1 -1 -1 -1 -1 -2 -2 -1 -1 -1 -1 -1 -0 -0 -0 -0 0 0 0 1 1 1 1 1 1 1 1 2 2 2 2
-4 -3 -1 -0 -1 -2 -2 -2 -2 -3 -3 -2 -2 -3 -2 -1 -2 -2 -2 -2 -2 -2 -1 -1 -1 -1 -0 -0 -0 -0 -0 0 0 0 1 1 1 1 1 1 1 1 2 2
-4 -4 -2 -2 -2 -2 -2 -2 -2 -2 -2 -3 -3 -3 -2 -2 -2 -2 -2 -2 -2 -2 -2 -2 -1 -1 -1 -1 -1 -1 -1 -0 -0 -0 0 0 0 0 0 1 1 1 1 1
-5 -4 -2 -2 -3 -3 -2 -2 -2 -2 -2 -2 -2 -2 -2 -2 -3 -3 -2 -2 -2 -2 -2 -2 -2 -2 -2 -1 -1 -1 -1 -1 -1 -1 -0 -0 -0 -0 -0 0 0 0 0 0
-4 -3 -2 -2 -2 -1 -1 -2 -2 -2 -2 -3 -3 -3 -3 -3 -3 -3 -3 -3 -3 -3 -2 -2 -2 -2 -2 -2 -2 -2 -2 -1 -1 -1 -1 -1 -1 -1 -1 -1 -1 -1 -1 -0
-5 -4 -3 -2 -2 -1 -2 -2 -2 -2 -3 -3 -3 -3 -3 -3 -3 -3 -3 -3 -3 -3 -3 -3 -3 -3 -2 -2 -2 -2 -2 -2 -2 -2 -1 -1 -1 -1 -1 -1 -1 -1 -1 -1
-5 -4 -4 -2 -2 -2 -2 -2 -2 -3 -3 -3 -3 -3 -4 -4 -4 -4 -3 -3 -3 -3 -3 -3 -3 -3 -3 -3 -3 -3 -3 -2 -2 -2 -2 -2 -2 -2 -2 -2 -2 -2 -2 -2
-4 -3 -4 -2 -1 -2 -2 -3 -3 -3 -3 -3 -4 -4 -4 -4 -4 -4 -4 -4 -4 -4 -4 -3 -3 -3 -3 -3 -3 -3 -3 -3 -3 -3 -3 -2 -2 -2 -2 -2 -2 -2 -2 -2
-2 -2 -2 -2 -2 -2 -3 -3 -3 -3 -4 -4 -4 -4 -4 -4 -4 -4 -4 -4 -4 -4 -4 -4 -3 -3 -3 -4 -4 -3 -3 -3 -3 -3 -3 -3 -3 -3 -2 -2 -2 -2 -2 -2
-2 -2 -3 -2 -3 -3 -3 -3 -4 -4 -4 -4 -4 -4 -4 -4 -5 -5 -4 -4 -4 -4 -4 -4 -4 -4 -4 -4 -4 -4 -4 -4 -4 -4 -4 -3 -3 -3 -3 -3 -3 -2 -2 -2
-2 -3 -3 -3 -3 -3 -4 -4 -4 -4 -4 -4 -5 -5 -5 -5 -5 -5 -5 -5 -5 -4 -4 -4 -4 -4 -4 -4 -4 -4 -4 -4 -4 -4 -4 -4 -4 -4 -4 -4 -3 -3 -3 -3
-3 -3 -3 -4 -4 -4 -4 -4 -4 -5 -5 -5 -5 -5 -5 -5 -5 -5 -5 -5 -5 -5 -5 -5 -5 -5 -5 -5 -4 -4 -4 -4 -4 -4 -4 -4 -4 -4 -4 -4 -4 -4 -3 -3
-4 -4 -4 -4 -4 -4 -4 -5 -5 -5 -5 -5 -5 -5 -5 -5 -5 -5 -5 -5 -5 -5 -5 -5 -5 -5 -5 -5 -5 -5 -5 -5 -5 -5 -5 -5 -5 -5 -5 -5 -4 -4 -4 -4
-4 -4 -4 -4 -4 -5 -5 -5 -5 -5 -5 -5 -5 -5 -5 -5 -5 -6 -6 -5 -5 -5 -5 -5 -5 -5 -5 -5 -5 -5 -5 -5 -5 -5 -5 -5 -5 -5 -5 -5 -5 -5 -4 -4
-4 -4 -4 -4 -4 -5 -5 -5 -5 -5 -5 -5 -5 -6 -6 -6 -6 -6 -6 -6 -6 -5 -5 -6 -5 -5 -5 -5 -5 -5 -5 -5 -5 -5 -5 -5 -5 -5 -5 -5 -5 -5 -5 -4
-4 -4 -4 -5 -5 -5 -5 -5 -5 -5 -5 -5 -6 -6 -6 -6 -6 -6 -6 -6 -6 -6 -6 -6 -6 -6 -6 -6 -6 -6 -6 -6 -6 -6 -6 -6 -6 -6 -6 -6 -6 -5 -5 -5
-5 -5 -5 -5 -5 -5 -5 -5 -5 -5 -6 -6 -6 -6 -6 -6 -6 -6 -6 -6 -6 -6 -6 -6 -6 -6 -6 -6 -6 -6 -6 -6 -6 -6 -6 -6 -6 -6 -6 -6 -6 -6 -6 -5
-5 -5 -5 -5 -6 -6 -6 -6 -6 -6 -6 -6 -6 -6 -6 -6 -7 -7 -7 -7 -7 -7 -7 -7 -7 -6 -6 -6 -6 -6 -6 -7 -7 -7 -7 -7 -7 -7 -6 -6 -6 -6 -6 -6
-6 -6 -6 -6 -6 -6 -6 -6 -6 -6 -6 -6 -6 -6 -7 -7 -7 -7 -7 -7 -7 -7 -7 -7 -7 -7 -7 -7 -7 -7 -7 -7 -7 -7 -7 -7 -7 -7 -7 -7 -7 -6 -6 -6
-6 -6 -6 -6 -6 -6 -6 -6 -6 -6 -6 -7 -7 -7 -7 -7 -7 -7 -7 -7 -7 -7 -7 -7 -7 -7 -7 -7 -7 -7 -7 -7 -7 -7 -7 -7 -7 -7 -7 -7 -7 -7 -6 -6
-6 -6 -6 -6 -7 -7 -7 -7 -7 -7 -7 -7 -7 -7 -7 -7 -7 -7 -8 -8 -8 -8 -8 -8 -8 -8 -7 -7 -7 -7 -7 -8 -8 -8 -8 -8 -7 -7 -7 -7 -7 -7 -7 -6
-6 -6 -7 -7 -7 -7 -7 -7 -7 -7 -7 -7 -7 -7 -7 -8 -8 -8 -8 -8 -8 -8 -8 -8 -8 -8 -8 -8 -8 -8 -8 -8 -8 -8 -8 -8 -8 -8 -7 -7 -7 -7 -7 -7
-7 -7 -7 -7 -7 -7 -7 -7 -7 -7 -7 -7 -7 -8 -8 -8 -8 -8 -8 -8 -8 -8 -8 -8 -8 -8 -8 -8 -8 -8 -8 -8 -8 -8 -8 -8 -8 -8 -8 -8 -8 -7 -7 -7
Wind_Speed
7 7 5 6 7 5 6 6 7 8 9 10 8 7 6 6 7 6 7 7 6 5 4 5 4 4 3 2 2 2 1 2 2 1 1 0 0 1 1 1 1 1 1 1
5 5 6 8 9 9 8 7 9 9 10 7 7 4 5 5 6 6 6 7 7 7 6 6 4 4 3 3 3 2 1 2 3 2 1 0 0 1 1 1 1 1 1 1
5 6 4 6 7 8 5 5 5 8 8 6 6 6 5 5 5 5 6 7 6 7 6 6 5 4 3 3 2 2 1 2 2 2 1 0 0 0 0 1 2 1 1 1
2 4 4 6 1 3 5 6 4 5 6 5 6 7 4 2 3 5 6 6 6 6 6 6 5 4 3 2 2 2 2 2 2 2 2 1 0 0 0 1 1 1 1 1
1 3 8 6 2 1 3 6 3 5 6 6 6 4 3 3 4 4 5 5 6 6 5 5 5 4 3 3 2 2 2 3 2 2 2 1 1 1 1 0 1 1 1 1
2 3 6 5 2 1 1 5 3 3 6 5 4 3 5 5 6 6 5 5 5 5 5 4 4 3 3 3 3 3 3 3 3 2 2 1 1 1 1 0 1 1 1 1
4 5 8 5 2 2 2 6 5 4 5 4 3 5 6 6 6 6 6 5 5 4 4 4 4 3 3 3 3 3 3 3 2 2 2 1 0 1 1 1 1 1 1 1
4 5 8 3 3 4 7 3 3 4 4 4 5 5 5 5 5 6 6 5 4 4 4 4 3 2 2 3 3 3 3 2 2 2 2 2 1 1 1 1 1 2 1 2
8 8 5 4 6 5 3 4 4 4 5 4 4 5 5 5 5 5 5 5 4 4 4 4 3 2 2 3 3 3 3 3 2 3 2 2 1 1 1 1 1 1 1 2
5 8 6 6 6 5 4 5 5 5 4 4 4 5 5 5 5 5 5 5 4 4 4 4 4 3 2 3 3 3 3 3 2 2 2 3 2 1 1 1 1 1 1 2
7 7 6 6 6 6 5 4 4 4 4 4 4 4 4 4 5 5 5 4 4 3 3 4 4 3 3 3 2 2 2 2 3 2 2 2 3 2 2 2 1 1 2 2
8 7 6 6 5 4 4 5 5 4 4 3 3 4 4 4 4 4 4 4 4 4 3 4 3 3 3 3 2 1 2 2 2 2 2 2 2 3 5 3 4 4 4 3
7 5 5 6 5 4 5 5 4 4 4 4 3 3 3 3 3 3 4 4 4 4 4 3 3 3 3 3 2 1 1 1 1 2 2 2 2 2 3 5 6 6 5 6
5 3 4 4 4 4 4 3 3 2 3 3 2 2 2 2 3 3 3 3 3 3 3 3 3 4 3 2 2 2 1 2 2 1 1 1 1 2 2 2 4 4 5 6
6 5 5 4 3 2 2 1 1 2 2 2 1 1 2 2 3 4 4 3 3 3 3 3 3 4 4 3 2 2 1 1 1 1 1 1 1 2 2 2 2 3 4 5
4 3 3 3 3 2 1 1 2 3 3 2 2 2 2 2 3 3 3 2 2 3 3 4 4 4 4 3 2 2 1 2 2 1 1 1 1 2 2 2 2 3 3 4
3 4 3 4 4 4 3 4 4 4 3 3 3 2 2 2 2 3 3 3 2 2 3 3 4 4 3 2 2 1 1 2 3 2 1 1 1 1 2 2 2 3 3 4
7 6 6 5 5 5 4 4 3 3 3 3 2 1 1 1 2 3 3 3 3 3 3 3 3 3 3 3 2 1 1 1 1 1 1 2 2 1 2 2 2 3 3 4
5 5 5 4 4 4 4 4 3 3 2 2 2 2 2 2 2 2 2 2 2 3 4 4 6 4 3 3 2 1 1 1 1 1 2 2 2 2 2 2 2 2 3 3
3 3 3 3 2 2 3 2 2 2 2 2 1 1 1 2 2 1 1 2 2 3 3 4 4 3 3 2 2 1 1 1 1 1 1 1 1 2 2 2 2 2 3 3
3 2 2 2 2 1 2 2 2 2 2 2 2 2 2 2 1 1 1 2 3 3 3 4 3 2 2 2 2 0 0 0 1 1 1 1 1 2 2 2 2 2 3 3
2 3 3 3 2 1 1 1 2 2 1 1 1 1 1 1 1 2 2 2 3 4 3 2 2 3 3 2 0 0 0 0 1 1 1 1 1 1 2 2 2 2 3 3
3 3 3 3 2 2 1 1 1 2 2 2 2 2 2 2 1 1 2 2 2 4 3 2 3 4 4 2 0 0 1 1 1 1 1 1 1 1 2 2 2 2 2 3
3 2 2 2 2 2 1 1 1 1 1 1 2 2 2 1 2 2 2 3 4 4 2 3 4 4 3 1 0 0 1 1 1 1 1 1 1 1 1 2 2 2 3 3
3 2 2 2 2 2 2 1 0 0 0 0 1 1 1 1 1 2 2 2 3 3 2 3 4 4 2 1 0 1 1 2 2 1 1 1 1 1 2 2 2 2 3 3
3 2 2 3 2 2 1 1 1 1 1 0 1 1 1 1 0 1 1 1 2 3 2 2 3 2 1 1 1 1 1 1 2 1 1 1 1 1 2 2 3 3 3 3
2 2 1 1 1 1 2 2 2 1 1 1 1 1 0 0 0 0 1 1 1 2 2 2 2 1 1 1 1 1 1 1 1 1 1 1 1 2 2 2 2 3 3 3
Wind_Direction
254 263 259 264 267 249 224 222 231 261 264 281 299 304 305 317 330 342 345 347 347 346 342 343 345 345 345 339 340 351 4 352 328 313 302 307 341 355 354 329 287 259 264 288
282 273 268 271 268 257 250 246 250 267 273 285 301 308 315 321 329 334 335 338 343 342 338 338 335 333 339 342 339 358 358 332 329 332 333 341 8 21 7 341 323 305 272 279
279 310 325 277 252 228 227 225 225 247 266 308 315 308 301 304 317 321 328 330 333 333 328 325 323 323 325 322 329 348 338 336 337 330 321 275 95 62 348 335 349 338 311 288
285 353 261 251 257 219 231 244 240 264 292 301 293 293 280 279 312 321 323 323 324 324 323 322 324 332 326 328 340 343 340 341 342 340 318 313 91 72 11 5 338 315 316 309
194 272 279 289 287 231 229 269 256 267 292 309 326 331 304 318 321 304 303 306 307 310 311 317 321 327 340 349 348 355 354 347 341 335 333 344 25 5 0 355 331 321 322 322
177 232 256 265 278 273 102 285 283 275 287 304 346 323 292 312 319 316 317 315 315 316 317 321 320 333 357 352 354 351 344 338 337 336 339 333 319 324 336 343 336 327 333 332
203 232 265 262 266 94 159 264 294 270 272 268 250 251 280 304 311 312 314 314 317 322 322 318 323 348 357 350 342 330 329 336 340 338 336 318 326 341 343 4 16 359 343 340
181 214 255 222 139 187 229 265 270 265 266 264 270 286 296 300 305 313 318 322 325 330 326 326 337 360 354 339 333 337 342 347 345 344 345 360 33 6 4 40 42 6 356 354
200 220 253 205 211 229 219 246 259 262 273 268 276 286 297 299 302 309 314 320 325 327 329 333 339 359 346 332 340 349 355 354 355 358 4 8 28 14 11 30 36 344 339 336
248 260 258 255 252 255 241 243 258 260 263 261 268 279 290 298 304 311 316 321 326 332 335 333 337 353 339 330 344 359 359 354 0 13 16 14 8 0 6 355 346 327 317 314
250 269 283 261 243 247 253 259 270 271 261 257 260 276 282 292 299 305 314 321 328 327 321 319 329 342 340 342 353 2 356 355 1 11 21 15 13 7 345 324 310 294 289 287
233 229 219 252 253 244 245 259 261 265 271 272 257 262 276 282 291 301 311 322 330 330 325 319 329 334 334 339 352 356 353 357 357 3 12 20 23 12 8 0 2 356 342 328
232 235 231 257 259 233 230 247 252 245 247 270 274 265 272 287 295 306 315 322 324 323 323 326 334 332 331 337 346 345 319 332 342 352 1 5 6 9 360 4 12 10 5 358
231 219 247 245 249 243 241 247 246 250 258 259 268 284 286 295 306 309 310 312 318 325 330 335 339 333 328 336 346 343 332 333 335 335 342 341 340 343 344 349 349 351 355 359
231 224 235 255 257 260 254 234 254 270 275 287 283 282 289 290 294 300 307 317 331 339 338 344 345 335 337 342 347 338 335 333 337 344 348 342 344 356 355 349 348 342 345 353
243 243 236 237 241 240 234 227 235 251 257 264 276 279 282 285 292 303 316 331 340 334 336 340 334 328 333 340 345 344 348 355 358 6 10 4 4 8 360 350 347 348 345 340
204 230 230 241 245 243 232 232 232 239 243 250 260 276 295 308 317 321 328 334 329 325 328 328 322 325 337 343 346 341 349 354 358 6 8 359 0 355 346 343 343 344 336 335
215 219 219 223 229 234 239 240 234 231 238 247 255 266 275 276 283 298 313 329 336 338 333 326 326 337 346 347 344 348 357 354 355 358 359 0 359 354 347 347 348 346 341 344
220 221 224 225 219 215 220 228 232 232 235 223 224 244 257 262 272 291 308 326 328 322 320 324 335 346 336 333 349 13 12 11 8 4 4 360 0 356 353 350 348 345 342 347
217 216 217 221 210 205 212 218 218 226 231 212 212 230 257 274 281 291 301 295 284 280 293 311 325 326 324 329 348 18 20 12 0 352 353 357 352 348 346 345 344 344 345 346
211 207 201 202 214 218 208 203 199 217 232 212 204 217 240 272 281 277 286 294 300 307 312 320 332 317 317 324 339 16 2 345 330 325 331 335 340 343 345 344 343 343 342 342
201 199 203 199 196 222 240 214 202 204 209 212 211 209 218 270 290 296 278 264 284 310 325 320 313 309 320 331 22 209 272 286 294 302 308 312 321 324 324 327 329 330 332 332
199 200 200 198 198 209 229 219 207 201 205 211 212 215 226 253 265 271 297 300 303 315 330 308 312 325 339 13 59 245 250 257 261 265 272 281 290 295 301 312 318 317 319 321
192 192 190 175 153 161 200 243 241 230 224 233 226 221 218 251 294 283 279 299 316 324 331 317 330 341 1 45 44 264 253 252 253 255 261 271 280 293 300 303 307 310 313 316
178 175 167 163 176 202 214 200 175 227 252 290 295 283 258 236 246 282 299 303 316 333 337 335 342 352 14 13 329 272 257 249 246 245 247 257 270 283 293 297 300 304 308 310
176 183 190 198 202 201 190 182 194 209 200 248 323 319 322 324 297 303 313 316 316 336 343 334 334 342 354 340 316 301 295 292 299 284 255 258 266 273 281 289 296 299 300 301
165 168 169 180 198 190 186 189 198 216 214 208 248 272 304 345 355 340 329 332 338 342 337 335 337 343 341 331 323 315 311 308 298 279 265 263 268 270 276 280 287 291 296 299
Height
1510 1506 1506 1504 1501 1500 1501 1499 1498 1490 1486 1479 1477 1476 1473 1469 1466 1463 1460 1458 1456 1454 1453 1451 1450 1448 1447 1446 1446 1446 1446 1445 1445 1446 1446 1446 1447 1447 1447 1448 1448 1448 1449 1449
1509 1503 1502 1500 1496 1495 1494 1494 1491 1487 1483 1477 1476 1474 1471 1469 1466 1463 1461 1458 1456 1454 1452 1450 1448 1447 1446 1445 1445 1444 1444 1444 1444 1444 1444 1444 1444 1445 1445 1446 1446 1446 1446 1446
1511 1506 1502 1499 1491 1490 1490 1488 1488 1486 1482 1477 1475 1472 1470 1468 1466 1464 1461 1459 1456 1454 1452 1449 1448 1446 1445 1444 1444 1443 1443 1442 1442 1442 1442 1442 1442 1443 1443 1443 1444 1444 1444 1444
1515 1512 1505 1491 1486 1486 1486 1484 1484 1481 1479 1476 1474 1470 1469 1467 1466 1463 1461 1458 1456 1453 1451 1449 1447 1445 1444 1443 1443 1442 1441 1441 1441 1441 1440 1440 1440 1440 1441 1441 1441 1441 1441 1442
1517 1515 1501 1489 1486 1486 1487 1483 1480 1479 1476 1474 1471 1468 1467 1466 1465 1463 1460 1458 1455 1453 1450 1448 1446 1444 1443 1442 1441 1441 1440 1439 1439 1439 1439 1439 1438 1439 1439 1439 1439 1439 1439 1439
1517 1512 1500 1487 1484 1482 1485 1483 1477 1476 1475 1473 1471 1471 1467 1464 1463 1460 1458 1456 1454 1451 1449 1447 1445 1443 1442 1441 1440 1439 1439 1438 1438 1438 1438 1437 1437 1437 1437 1437 1437 1437 1437 1437
1513 1511 1496 1485 1483 1483 1488 1482 1476 1474 1473 1471 1470 1470 1466 1463 1461 1459 1457 1454 1452 1450 1448 1446 1444 1443 1441 1440 1439 1439 1438 1437 1437 1437 1437 1436 1436 1436 1436 1435 1435 1435 1435 1435
1510 1508 1495 1481 1482 1483 1480 1475 1474 1472 1471 1469 1467 1465 1463 1461 1459 1457 1454 1452 1450 1448 1446 1445 1444 1442 1441 1440 1439 1438 1437 1436 1436 1436 1436 1435 1435 1434 1434 1434 1433 1433 1433 1433
1495 1489 1480 1477 1476 1475 1474 1473 1471 1470 1468 1467 1465 1463 1461 1459 1457 1455 1453 1451 1449 1447 1445 1444 1443 1441 1440 1439 1438 1436 1436 1435 1435 1435 1435 1434 1434 1433 1433 1432 1432 1431 1431 1431
1488 1479 1476 1474 1473 1472 1472 1470 1469 1468 1466 1464 1462 1461 1459 1457 1455 1453 1451 1449 1447 1446 1444 1442 1441 1440 1439 1438 1437 1436 1435 1434 1434 1434 1433 1433 1433 1432 1432 1431 1430 1430 1430 1430
1482 1475 1472 1469 1469 1469 1468 1467 1466 1465 1463 1462 1460 1459 1457 1455 1454 1452 1450 1448 1446 1445 1443 1441 1440 1439 1438 1437 1436 1435 1434 1434 1433 1433 1432 1432 1432 1432 1431 1430 1430 1429 1429 1428
1473 1468 1468 1465 1465 1465 1465 1464 1463 1462 1460 1459 1458 1457 1455 1454 1452 1450 1448 1447 1445 1443 1442 1440 1439 1438 1437 1436 1435 1435 1434 1433 1433 1432 1432 1431 1431 1430 1430 1429 1429 1428 1428 1427
1464 1463 1463 1462 1462 1462 1461 1460 1460 1459 1458 1457 1456 1454 1453 1451 1450 1449 1447 1445 1444 1442 1441 1439 1438 1437 1436 1435 1435 1434 1433 1432 1432 1431 1431 1430 1430 1429 1427 1428 1427 1427 1427 1426
1461 1461 1460 1459 1458 1458 1457 1457 1456 1456 1455 1454 1453 1452 1451 1449 1448 1447 1445 1444 1443 1441 1440 1438 1437 1436 1435 1434 1434 1433 1432 1432 1431 1431 1430 1430 1429 1428 1427 1426 1425 1424 1425 1425
1457 1457 1456 1455 1455 1454 1454 1453 1453 1452 1452 1451 1451 1450 1448 1447 1446 1445 1444 1443 1441 1440 1439 1438 1436 1435 1434 1434 1433 1432 1432 1431 1430 1430 1429 1429 1428 1427 1426 1425 1424 1424 1423 1423
1452 1452 1452 1452 1451 1451 1450 1450 1450 1449 1449 1448 1448 1447 1446 1445 1444 1443 1442 1441 1440 1439 1438 1437 1436 1435 1434 1433 1432 1431 1431 1430 1430 1429 1429 1428 1427 1426 1425 1425 1424 1423 1422 1422
1448 1448 1448 1448 1448 1447 1447 1447 1447 1447 1446 1446 1445 1445 1444 1443 1442 1441 1441 1440 1439 1438 1437 1436 1435 1434 1433 1432 1431 1430 1430 1429 1429 1428 1428 1427 1426 1426 1425 1424 1423 1422 1422 1421
1444 1444 1444 1444 1444 1444 1444 1444 1445 1444 1444 1444 1443 1443 1442 1441 1440 1440 1439 1438 1437 1436 1436 1434 1434 1433 1432 1431 1430 1429 1429 1428 1428 1427 1427 1426 1425 1425 1424 1423 1422 1422 1421 1421
1440 1441 1441 1441 1441 1441 1441 1442 1442 1442 1442 1442 1441 1441 1441 1440 1439 1438 1437 1436 1436 1435 1434 1433 1432 1432 1431 1430 1429 1429 1428 1427 1427 1426 1426 1425 1425 1424 1423 1422 1422 1421 1420 1420
1437 1437 1438 1438 1438 1439 1439 1439 1440 1440 1440 1440 1439 1439 1439 1438 1438 1437 1436 1435 1434 1433 1432 1432 1431 1430 1429 1429 1428 1427 1427 1426 1426 1425 1425 1424 1424 1423 1422 1421 1421 1420 1420 1419
1434 1434 1435 1435 1436 1436 1437 1437 1437 1437 1438 1438 1437 1437 1437 1436 1436 1435 1434 1433 1433 1432 1431 1430 1429 1429 1428 1427 1427 1426 1426 1425 1425 1424 1424 1423 1422 1422 1421 1421 1420 1420 1419 1418
1431 1432 1432 1433 1434 1434 1435 1435 1435 1435 1435 1436 1435 1435 1435 1434 1434 1433 1433 1432 1431 1430 1429 1429 1428 1427 1427 1426 1425 1425 1424 1424 1423 1423 1422 1422 1421 1421 1420 1420 1419 1419 1418 1417
1429 1430 1430 1431 1432 1432 1432 1433 1433 1433 1433 1433 1433 1433 1433 1432 1432 1431 1431 1430 1429 1429 1428 1427 1426 1426 1425 1424 1423 1423 1422 1422 1421 1421 1421 1420 1420 1419 1419 1418 1418 1418 1417 1417
1427 1428 1429 1429 1430 1430 1430 1431 1431 1431 1431 1431 1431 1431 1431 1430 1430 1430 1429 1429 1428 1427 1426 1425 1425 1424 1423 1422 1422 1421 1420 1420 1419 1419 1419 1419 1418 1418 1418 1417 1417 1417 1417 1416
1425 1426 1427 1427 1428 1428 1428 1429 1429 1429 1429 1429 1429 1429 1429 1429 1429 1428 1427 1427 1426 1426 1425 1424 1423 1422 1421 1421 1420 1419 1419 1418 1418 1417 1417 1417 1417 1417 1416 1416 1416 1416 1415 1415
1424 1424 1425 1425 1426 1426 1426 1427 1427 1427 1427 1427 1428 1428 1427 1427 1427 1426 1426 1425 1425 1424 1423 1422 1421 1421 1420 1419 1418 1417 1417 1416 1416 1416 1416 1416 1415 1415 1415 1415 1415 1414 1414 1414
1422 1422 1423 1424 1424 1424 1425 1425 1425 1425 1426 1426 1426 1426 1426 1426 1425 1425 1424 1424 1423 1423 1422 1421 1420 1419 1418 1418 1417 1416 1415 1415 1415 1414 1414 1414 1414 1414 1413 1413 1413 1413 1413 1413